Regional Weather Roundup
Issued by NWS Wakefield, VA

Home | Current Version | Previous Version | Graphics & Text | Print | Product List | Glossary On
Versions: 1 2 3 4 5 6 7 8 9 10 11 12 13 14 15 16 17 18 19 20 21 22 23 24 25 26 27 28 29 30 31 32 33 34 35 36 37 38 39 40 41 42 43 44 45 46 47 48 49 50
000
ASUS41 KAKQ 261515
RWRAKQ

REGIONAL WEATHER ROUNDUP
NATIONAL WEATHER SERVICE WAKEFIELD VA
1100 AM EDT FRI AUG 26 2016

Note: "fair" indicates few or no clouds below 12,000 feet with no
significant weather and/or obstructions to visibility. * = Denotes
station may not report precipitation (e.g., rain,snow,etc.),
thunder or fog.

VAZ042-051-052>054-056-261600-
NORTHERN VIRGINIA

CITY           SKY/WX    TMP DP  RH WIND       PRES   REMARKS
WASH NATIONAL  MOSUNNY   91  72  53 N12       30.07S HX  98
DULLES         MOSUNNY   91  70  49 NW8       30.09R HX  96
FORT BELVOIR   SUNNY     90  71  53 W5        30.07S HX  97
QUANTICO       PTSUNNY   88  76  67 CALM      30.08S HX  99
FREDERICKSBRG* SUNNY     90  73  56 N5        30.07S HX  98
STAFFORD*      MOSUNNY   91  69  49 N10       30.12S HX  95
WARRENTON      SUNNY     91  67  46 N9        30.09S
CULPEPER*      SUNNY     88  74  63 CALM      30.10S HX  97
MANASSAS*      PTSUNNY   90  72  55 N8        30.08S HX  96
LEESBURG*      MOSUNNY   88  73  62 W14G21    30.10R HX  96
WINCHESTER     PTSUNNY   86  70  58 NW9       30.12R
FRONT ROYAL*   PTSUNNY   86  75  70 CALM      30.11R HX  95
LURAY*         FAIR      86  72  62 CALM      30.13R
$$

VAZ048-049-060>072-079>083-261600-
CENTRAL AND SOUTH CENTRAL VIRGINIA

CITY           SKY/WX    TMP DP  RH WIND       PRES   REMARKS
RICHMOND       PTSUNNY   90  72  55 N10       30.08S HX  97
CHESTERFIELD*  FAIR      90  64  43 N9        30.10S
PETERSBURG*    SUNNY     91  72  53 NE8       30.09S HX  98
HANOVER        SUNNY     88  73  61 VRB7      30.10S HX  95
TAPPAHANNOCK*  SUNNY     89  74  60 N3        30.09S HX  98
QUINTON*       FAIR      88  76  67 CALM      30.08S HX  99
CHARLOTTSVILLE SUNNY     90  70  51 VRB3      30.11S HX  95
GORDONSVILLE*  FAIR      90  72  55 CALM      30.10S HX  96
ORANGE*          N/A     90  70  51 CALM      30.11S HX  95
LOUISA*        SUNNY     93  75  55 NE5       30.09S HX 104
BUMPASS*       FAIR      87  77  70 CALM      30.10S HX  99
FARMVILLE*     SUNNY     91  72  54 N6        30.09S HX  97
CREWE*         FAIR      89  73  58 NE7       30.10S HX  97
FORT PICKETT*  FAIR      89  74  60 NW7       30.10S HX  98
CHASE CITY*    FAIR      88  73  61 NW3       30.11S HX  95
CLARKSVILLE*   FAIR      86  73  66 CALM      30.10S
SOUTH HILL*    SUNNY     88  74  63 N6        30.16R HX  96
LAWRENCEVILLE* FAIR      89  74  60 NE5       30.09S HX  99
EMPORIA*       SUNNY     88  73  62 CALM      30.10R HX  96
$$

VAZ088>098-261600-
SOUTHEAST VIRGINIA

CITY           SKY/WX    TMP DP  RH WIND       PRES   REMARKS
NORFOLK        SUNNY     86  72  62 CALM      30.08R
VIRGINIA BEACH MOSUNNY   90  72  55 W7        30.07S HX  97
NORFOLK NAVAL  MOSUNNY   85  71  63 W3        30.09S
WEST POINT*    SUNNY     87  72  61 NW3       30.09S
SALUDA*        FAIR      84  76  77 NW6       30.07S
NEWPORT NEWS   SUNNY     87  74  64 VRB6      30.08S HX  95
LANGLEY AFB    MOSUNNY   85  74  68 CALM      30.07S
FORT EUSTIS    SUNNY     87  74  63 NW6       30.06S HX  95
WILLIAMSBURG*  SUNNY     91  75  59 E3        30.08S HX 102
HR EXEC AP*    FAIR      84  73  70 S5        30.10S
FRANKLIN*      SUNNY     85  72  65 CALM      30.09S
US460-WAKEFLD  SUNNY     87  73  62 CALM      30.08S
$$

VAZ020-022-025-037-045-261600-
WEST CENTRAL AND SOUTHWEST VIRGINIA

CITY           SKY/WX    TMP DP  RH WIND       PRES   REMARKS
STAUNTON*      SUNNY     83  70  64 SE5       30.17S
WAYNESBORO*    FAIR      84  69  59 NE5       30.17R
HOT SPRINGS VA MOSUNNY   75  69  79 N5        30.30S
LYNCHBURG      SUNNY     87  70  56 N6        30.15R
DANVILLE       SUNNY     88  72  58 N9        30.12R
SOUTH BOSTON*  FAIR      89  73  59 N5        30.11S HX  96
MARTINSVILLE   SUNNY     85  71  62 N7        30.17S
ROANOKE        MOSUNNY   87  70  56 NW8       30.18R
BLACKSBURG     CLOUDY    82  71  69 N6        30.26R
DUBLIN*        MOSUNNY   82  71  69 N7        30.25R
MARION*        MOSUNNY   82  70  68 NE3       30.29R
HILLSVILLE*    MOSUNNY   77  70  79 N12G17    30.25S
RICHLANDS*     FAIR      76  71  85 N3        30.27S
WISE*          PTSUNNY   81  63  54 NE6       30.29S
ABINGDON*      CLOUDY    81  71  72 CALM      30.25R
$$

MDZ021>025-VAZ099-100-261600-
SOUTHERN MARYLAND AND THE DELMARVA PENINSULA

CITY           SKY/WX    TMP DP  RH WIND       PRES   REMARKS
PATUXENT RIVER MOSUNNY   89  74  60 NW8       30.06S HX  98
BAY BRIDGE APT SUNNY     86  77  74 NW3       30.05S HX  97
LEONARDTOWN    SUNNY     88  72  58 N3        30.09R
DOVER          SUNNY     88  79  74 VRB7      30.02S HX 104
GEORGETOWN     SUNNY     88  75  65 VRB5      30.05S HX  97
EASTON         SUNNY     90  81  74 NW7       30.08  HX 108
CAMBRIDGE      SUNNY     86  73  66 NW5       30.05S
SALISBURY      SUNNY     88  76  67 W6        30.05S HX  99
OCEAN CITY     SUNNY     88  77  69 W6        30.05S HX 100
WALLOPS ISLAND SUNNY     87  70  56 W8        30.06F
ACCOMACK*      SUNNY     86  73  66 W6        30.07S
$$

NCZ012>017-030>032-261600-
NORTH CENTRAL AND EASTERN NORTH CAROLINA

CITY           SKY/WX    TMP DP  RH WIND       PRES   REMARKS
ROANOKE RAPIDS FAIR      84  73  70 CALM      30.09S
RALEIGH        MOSUNNY   90  72  55 N8        30.11R HX  97
ELIZABETH CITY MOSUNNY   86  71  60 S10       30.10S
AHOSKIE*       SUNNY     82  73  72 CALM      30.09S
EDENTON*       MOSUNNY   85  69  58 SW7       30.11S
CURRITUCK*       N/A     85  71  64 SW7       30.10S
KILL DEVIL HLS SUNNY     88  76  67 SW6       30.10S HX  99
MANTEO         MOSUNNY   83  70  65 SW6       30.11F
CAPE HATTERAS  SUNNY     85  71  63 VRB6      30.12R
TARBORO*       FAIR      85  74  69 CALM      30.11R
GOLDSBORO      SUNNY     87  74  66 SW6       30.09R HX  95
WASHINGTON     SUNNY     84  72  67 S6        30.11S
GREENVILLE     SUNNY     86  73  66 W5        30.11S
NEW BERN       SUNNY     85  69  58 SW5       30.12S
WILMINGTON     PTSUNNY   83  70  64 CALM      30.11F
$$

VAZ048-261600-
ELSEWHERE

CITY           SKY/WX    TMP DP  RH WIND       PRES   REMARKS
HARRISBURG PA  PTSUNNY   83  73  72 NW12      30.06R
BALTIMORE      MOSUNNY   88  70  55 NW9       30.06R
ANNAPOLIS      SUNNY     88  71  57 NW9       30.05R
ANDREWS AFB    NOT AVBL
PHILADELPHIA   MOSUNNY   88  70  55 NW13G21   30.02S
HENDERSON NC   SUNNY     85  71  62 N3        30.11S
GREENSBORO     PTSUNNY   88  70  55 VRB7      30.13S
ROCKY MOUNT    SUNNY     86  74  67 NW5       30.10R
$$

VAZ100-261600-
MARINE

STATION/POSITION TIME  TEMP    WIND        PRES    WAVE   SWELL
                       AIR SEA DIR/SP/G            HT/PER HT/PER
                 (UTC) (F)     (DEG/KT/KT) (MB)    (FT/S) (FT/S)
BRANDYWINE LGT   1400   80     280/ 10/ 11   N/A
CAPE MAY NJ      1400   79 76  260/  5/  6 1016.6S
LEWES DE         1400   83 73  300/  8/  9 1016.8F
OCEAN-CITY-INLET 1400   81 76  210/  5/  6 1017.9F
WACHAPREAGUE VA  1400   84 80  270/  5/  7 1017.9F
THOMAS POINT MD  1500   86 81  340/  7/  8 1019.1R
GOOSES REEF MD   1500   85 83  310/  4/  4 1018.4R   1/ 2
COVE POINT MD    1400   82      20/  4/  6 1018.4R
SOLOMONS ISLAND  1400   84 83  310/  5/  9   N/A
BISHOPS HEAD MD  1400   80 80  260/  5/  6 1018.4R
PINEY POINT MD   1400          320/ 10/ 11   N/A
POTOMAC MD       1500   82 83  290/  6/  8 1017.2R   1
CAMBRIDGE MD     1400   83 83  300/  7/ 10 1016.9R
LEWISETTA VA     1400   83 82  330/  3/  4 1017.7R
RAPPAHANNOCK LGT 1400          240/  7/  8 1018.9R
STINGRAY PT      1400   81 83  220/  4/  6 1018.7R   1
YORK RVR RNG VA  1400   80     260/  6/  7 1017.8S
YORKTOWN VA      1400   80 82  310/  4/  5 1017.9S
JAMESTOWN VA     1500   80 84  280/  4/  4   N/A     0
DOMINION TERM VA 1400   80     240/  3/  4 1018.6S
KIPTOPEKE VA     1400      79  240/  7/  8   N/A
CHES BAY BRIDGE  1400   79 79  220/  7/  7 1018.2F
CAPE HENRY VA    1400   82     230/  3/  6   N/A
WILLOUBY STN VA  1400   78     240/  9/ 10   N/A
CAPE HENRY BUOY  1412      77                N/A     2/ 8
1ST LANDING BUOY 1500   80 79  290/  4/  4 1018.3S   1/ 5
CAPE CHARLES BUO 1426      77                N/A     2/ 8
OFFSHORE WE BUOY 1421      80                N/A     2/ 8
64NM E OF VA BCH 1450   80 80  220/ 10/ 12 1018.9S   2/ 8   2/ 8
DUCK PIER NC     1400   80 77  220/ 10/ 12 1018.7S
44100 DUCK FRF   1405      78                N/A     2/ 8
44056 DUCK FRF   1411      79                N/A     2/ 8
OREGON INLET NC  1400   80 81  240/  5/  6 1019.4S
HATTERAS NC      1400   82 81  310/  3/  4 1019.4R
DIAMOND SHLS NC  1450   81 85   20/  4/  8 1019.9S   2/ 8   2/ 8
CAPE LOOKOUT NC  1500   84     300/  2/  4 1019.5R
$$



USA.gov is the U.S. government's official web portal to all federal, state and local government web resources and services.